Flag for U.S.A. Weather past 2 weeks in Springfield, Illinois, U.S.A.

Now
62 °F

Sunny.


Feels Like: 62 °F
Forecast: 44 / 62 °F
Wind: 15 mph from Northeast

Location: Capital Airport

Current Time: Oct 21, 2014 at 2:58:23 PM

Latest Report: Oct 21, 2014 at 1:52 PM


Visibility: 10 mi

Pressure: 30.14 "Hg

Humidity: 46%

Dew point: 41 °F

Location of SpringfieldLocation

Historic Weather in Springfield — Graph

°F

Springfield temperature yesterday

Maximum temperature yesterday: 71 °F (at 1:52 PM)
Minimum temperature yesterday: 47 °F (at 11:52 PM)
Average temperature yesterday: 59 °F

Past Weeks' High & Low Weather Summary

 TemperatureHumidityPressure
High76 °F (Oct 7, 3:52 PM)97% (Oct 13, 6:59 AM)30.24 "Hg (Oct 13, 6:59 AM)
Low39 °F (Oct 12, 12:52 AM)25% (Oct 7, 4:52 PM)29.42 "Hg (Oct 14, 5:52 AM)
Average56 °F75%29.92 "Hg
* Reported Oct 6 12:52 PM — Oct 21 12:52 PM, Springfield, Weather by CustomWeather, © 2014

Note: Actual official high and low records may vary slightly from our data, if they occured in-between our weather recording intervals... More about our weather records

Advertising

Springfield weather history for previous 24 hours

 ConditionsComfort  
Time TempWeatherWind HumidityBarometerVisibility
12:52 PM
Oct 21
61 °FSunny.10 mph52%30.15 "Hg10 mi
11:52 AM60 °FSunny.9 mph53%30.17 "Hg10 mi
10:52 AM58 °FSunny.12 mph62%30.16 "Hg10 mi
9:52 AM54 °FSunny.10 mph72%30.16 "Hg10 mi
8:52 AM50 °FSunny.6 mph77%30.15 "Hg10 mi
7:52 AM44 °FClear.No wind89%30.13 "Hg10 mi
6:52 AM39 °FFog.No wind89%30.10 "Hg3 mi
5:52 AM41 °FClear.No wind96%30.08 "Hg10 mi
4:52 AM42 °FClear.No wind89%30.05 "Hg10 mi
3:52 AM45 °FClear.3 mph90%30.03 "Hg10 mi
2:52 AM43 °FClear.3 mph89%30.03 "Hg10 mi
1:52 AM45 °FClear.3 mph93%30.02 "Hg10 mi
12:52 AM45 °FClear.5 mph86%30.01 "Hg10 mi
11:52 PM
Oct 20
47 °FClear.No wind83%30.00 "Hg10 mi
10:52 PM48 °FClear.3 mph80%30.00 "Hg10 mi
9:52 PM50 °FClear.6 mph77%30.00 "Hg10 mi
8:52 PM50 °FClear.3 mph77%29.99 "Hg10 mi
7:52 PM55 °FClear.5 mph67%29.98 "Hg10 mi
6:52 PM61 °FSunny.5 mph52%29.97 "Hg10 mi
5:52 PM66 °FSunny.6 mph43%29.96 "Hg10 mi
4:52 PM69 °FSunny.13 mph41%29.93 "Hg10 mi
3:52 PM70 °FSunny.15 mph38%29.92 "Hg10 mi
2:52 PM71 °FSunny.10 mph35%29.91 "Hg10 mi
Weather by CustomWeather, © 2014

See weather overviewHow to use our weather pages